Time,TemperatureF,DewpointF,PressureIn,WindDirection,WindDirectionDegrees,WindSpeedMPH,WindSpeedGustMPH,Humidity,HourlyPrecipIn,Conditions,Clouds,dailyrainin,SoftwareType,DateUTC
2013-02-18 00:00:00,21.0,14.3,29.89,SE,135,10.0,24.0,75,0.00,,,-99.99,Weather View 32 v60,2013-02-18 05:00:00,
2013-02-18 00:05:00,21.0,14.3,29.89,SE,135,11.0,24.0,75,0.00,,,-99.99,Weather View 32 v60,2013-02-18 05:05:00,
2013-02-18 00:10:00,21.0,14.3,29.89,South,180,10.0,24.0,75,0.00,,,-99.99,Weather View 32 v60,2013-02-18 05:10:00,
2013-02-18 00:15:00,21.0,14.3,29.89,South,180,14.0,24.0,75,0.00,,,-99.99,Weather View 32 v60,2013-02-18 05:15:00,
2013-02-18 00:20:00,21.0,14.3,29.89,SE,135,9.0,24.0,75,0.00,,,-99.99,Weather View 32 v60,2013-02-18 05:20:00,
2013-02-18 00:25:00,21.0,14.6,29.89,SE,135,8.0,24.0,76,0.00,,,-99.99,Weather View 32 v60,2013-02-18 05:25:00,
2013-02-18 00:30:00,20.0,14.0,29.88,SE,135,13.0,24.0,77,0.00,,,-99.99,Weather View 32 v60,2013-02-18 05:30:00,
2013-02-18 00:35:00,20.0,14.0,29.88,SE,135,8.0,28.0,77,0.00,,,-99.99,Weather View 32 v60,2013-02-18 05:35:00,
2013-02-18 00:40:00,20.0,14.0,29.87,ESE,112,13.0,28.0,77,0.00,,,-99.99,Weather View 32 v60,2013-02-18 05:40:00,
2013-02-18 00:45:00,20.0,14.0,29.87,SE,135,15.0,35.0,77,0.00,,,-99.99,Weather View 32 v60,2013-02-18 05:45:00,
2013-02-18 00:50:00,20.0,14.0,29.87,SE,135,16.0,35.0,77,0.00,,,-99.99,Weather View 32 v60,2013-02-18 05:50:00,
2013-02-18 00:55:00,21.0,14.6,29.87,SE,135,12.0,35.0,76,0.00,,,-99.99,Weather View 32 v60,2013-02-18 05:55:00,
2013-02-18 01:00:00,21.0,14.9,29.87,SSE,157,10.0,35.0,77,0.00,,,-99.99,Weather View 32 v60,2013-02-18 06:00:00,
2013-02-18 01:05:00,21.0,14.6,29.87,SE,135,11.0,35.0,76,0.00,,,-99.99,Weather View 32 v60,2013-02-18 06:05:00,
2013-02-18 01:10:00,21.0,14.0,29.86,SSE,157,10.0,35.0,74,0.00,,,-99.99,Weather View 32 v60,2013-02-18 06:10:00,
2013-02-18 01:15:00,21.0,14.0,29.86,SSE,157,13.0,35.0,74,0.00,,,-99.99,Weather View 32 v60,2013-02-18 06:15:00,
2013-02-18 01:20:00,21.0,14.0,29.86,SSE,157,15.0,35.0,74,0.00,,,-99.99,Weather View 32 v60,2013-02-18 06:20:00,
2013-02-18 01:25:00,21.0,14.0,29.86,SE,135,13.0,35.0,74,0.00,,,-99.99,Weather View 32 v60,2013-02-18 06:25:00,
2013-02-18 01:30:00,21.0,13.7,29.85,SE,135,14.0,35.0,73,0.00,,,-99.99,Weather View 32 v60,2013-02-18 06:30:00,
2013-02-18 01:35:00,22.0,14.4,29.85,South,180,9.0,35.0,72,0.00,,,-99.99,Weather View 32 v60,2013-02-18 06:35:00,
2013-02-18 01:40:00,22.0,14.4,29.85,SSE,157,15.0,35.0,72,0.00,,,-99.99,Weather View 32 v60,2013-02-18 06:40:00,
2013-02-18 01:45:00,22.0,14.0,29.85,SE,135,13.0,27.0,71,0.00,,,-99.99,Weather View 32 v60,2013-02-18 06:45:00,
2013-02-18 01:50:00,22.0,13.7,29.83,SE,135,13.0,27.0,70,0.00,,,-99.99,Weather View 32 v60,2013-02-18 06:50:00,
2013-02-18 01:55:00,22.0,13.4,29.83,SE,135,9.0,27.0,69,0.00,,,-99.99,Weather View 32 v60,2013-02-18 06:55:00,
2013-02-18 02:00:00,22.0,13.7,29.83,SE,135,10.0,27.0,70,0.00,,,-99.99,Weather View 32 v60,2013-02-18 07:00:00,
2013-02-18 02:05:00,22.0,13.7,29.83,SSE,157,11.0,27.0,70,0.00,,,-99.99,Weather View 32 v60,2013-02-18 07:05:00,
2013-02-18 02:10:00,22.0,13.7,29.82,SE,135,12.0,27.0,70,0.00,,,-99.99,Weather View 32 v60,2013-02-18 07:10:00,
2013-02-18 02:15:00,22.0,13.7,29.82,SE,135,11.0,27.0,70,0.00,,,-99.99,Weather View 32 v60,2013-02-18 07:15:00,
2013-02-18 02:20:00,22.0,13.7,29.82,SSE,157,14.0,27.0,70,0.00,,,-99.99,Weather View 32 v60,2013-02-18 07:20:00,
2013-02-18 02:25:00,23.0,14.3,29.82,SE,135,15.0,27.0,69,0.00,,,-99.99,Weather View 32 v60,2013-02-18 07:25:00,
2013-02-18 02:30:00,23.0,14.3,29.81,SE,135,19.0,27.0,69,0.00,,,-99.99,Weather View 32 v60,2013-02-18 07:30:00,
2013-02-18 02:35:00,23.0,14.0,29.81,SE,135,9.0,27.0,68,0.00,,,-99.99,Weather View 32 v60,2013-02-18 07:35:00,
2013-02-18 02:40:00,23.0,14.0,29.80,SSE,157,12.0,27.0,68,0.00,,,-99.99,Weather View 32 v60,2013-02-18 07:40:00,
2013-02-18 02:45:00,23.0,14.0,29.80,SSE,157,17.0,27.0,68,0.00,,,-99.99,Weather View 32 v60,2013-02-18 07:45:00,
2013-02-18 02:50:00,23.0,14.0,29.80,SSE,157,13.0,30.0,68,0.00,,,-99.99,Weather View 32 v60,2013-02-18 07:50:00,
2013-02-18 02:55:00,23.0,14.0,29.80,SE,135,11.0,30.0,68,0.00,,,-99.99,Weather View 32 v60,2013-02-18 07:55:00,
2013-02-18 03:00:00,23.0,14.0,29.79,SE,135,13.0,30.0,68,0.00,,,-99.99,Weather View 32 v60,2013-02-18 08:00:00,
2013-02-18 03:05:00,23.0,14.0,29.79,SE,135,14.0,33.0,68,0.00,,,-99.99,Weather View 32 v60,2013-02-18 08:05:00,
2013-02-18 03:10:00,24.0,15.0,29.78,SE,135,13.0,33.0,68,0.00,,,-99.99,Weather View 32 v60,2013-02-18 08:10:00,
2013-02-18 03:15:00,24.0,15.0,29.78,SSE,157,13.0,33.0,68,0.00,,,-99.99,Weather View 32 v60,2013-02-18 08:15:00,
2013-02-18 03:20:00,24.0,15.0,29.78,SE,135,10.0,33.0,68,0.00,,,-99.99,Weather View 32 v60,2013-02-18 08:20:00,
2013-02-18 03:25:00,24.0,15.0,29.78,SSE,157,15.0,33.0,68,0.00,,,-99.99,Weather View 32 v60,2013-02-18 08:25:00,
2013-02-18 03:30:00,24.0,15.0,29.77,SE,135,20.0,33.0,68,0.00,,,-99.99,Weather View 32 v60,2013-02-18 08:30:00,
2013-02-18 03:35:00,24.0,15.0,29.77,SE,135,19.0,33.0,68,0.00,,,-99.99,Weather View 32 v60,2013-02-18 08:35:00,
2013-02-18 03:40:00,24.0,15.0,29.77,SE,135,13.0,33.0,68,0.00,,,-99.99,Weather View 32 v60,2013-02-18 08:40:00,
2013-02-18 03:45:00,24.0,15.0,29.77,South,180,13.0,33.0,68,0.00,,,-99.99,Weather View 32 v60,2013-02-18 08:45:00,
2013-02-18 03:50:00,24.0,15.3,29.76,SE,135,12.0,33.0,69,0.00,,,-99.99,Weather View 32 v60,2013-02-18 08:50:00,
2013-02-18 03:55:00,24.0,15.3,29.76,SE,135,16.0,33.0,69,0.00,,,-99.99,Weather View 32 v60,2013-02-18 08:55:00,
2013-02-18 04:00:00,24.0,15.3,29.75,SE,135,14.0,33.0,69,0.00,,,-99.99,Weather View 32 v60,2013-02-18 09:00:00,
2013-02-18 04:05:00,24.0,15.3,29.75,South,180,9.0,33.0,69,0.00,,,-99.99,Weather View 32 v60,2013-02-18 09:05:00,
2013-02-18 04:10:00,24.0,15.6,29.74,SE,135,15.0,33.0,70,0.00,,,-99.99,Weather View 32 v60,2013-02-18 09:10:00,
2013-02-18 04:15:00,24.0,15.6,29.74,SE,135,20.0,30.0,70,0.00,,,-99.99,Weather View 32 v60,2013-02-18 09:15:00,
2013-02-18 04:20:00,24.0,15.3,29.73,SE,135,19.0,36.0,69,0.00,,,-99.99,Weather View 32 v60,2013-02-18 09:20:00,
2013-02-18 04:25:00,25.0,16.3,29.73,SSE,157,27.0,36.0,69,0.00,,,-99.99,Weather View 32 v60,2013-02-18 09:25:00,
2013-02-18 04:30:00,25.0,15.9,29.73,SE,135,17.0,39.0,68,0.00,,,-99.99,Weather View 32 v60,2013-02-18 09:30:00,
2013-02-18 04:35:00,25.0,16.3,29.73,SE,135,13.0,39.0,69,0.00,,,-99.99,Weather View 32 v60,2013-02-18 09:35:00,
2013-02-18 04:40:00,25.0,16.3,29.71,SE,135,20.0,39.0,69,0.00,,,-99.99,Weather View 32 v60,2013-02-18 09:40:00,
2013-02-18 04:45:00,24.0,15.6,29.71,South,180,7.0,39.0,70,0.00,,,-99.99,Weather View 32 v60,2013-02-18 09:45:00,
2013-02-18 04:55:00,24.0,16.0,29.71,SE,135,35.0,39.0,71,0.00,,,-99.99,Weather View 32 v60,2013-02-18 09:55:00,
2013-02-18 05:00:00,24.0,16.0,29.70,SE,135,11.0,39.0,71,0.00,,,-99.99,Weather View 32 v60,2013-02-18 10:00:00,
2013-02-18 05:05:00,24.0,16.3,29.70,SE,135,18.0,45.0,72,0.00,,,-99.99,Weather View 32 v60,2013-02-18 10:05:00,
2013-02-18 05:15:00,24.0,16.6,29.69,SE,135,19.0,45.0,73,0.00,,,-99.99,Weather View 32 v60,2013-02-18 10:15:00,
2013-02-18 05:20:00,23.0,15.6,29.69,South,180,15.0,45.0,73,0.00,,,-99.99,Weather View 32 v60,2013-02-18 10:20:00,
2013-02-18 05:25:00,23.0,15.6,29.69,SE,135,14.0,45.0,73,0.00,,,-99.99,Weather View 32 v60,2013-02-18 10:25:00,
2013-02-18 05:30:00,23.0,16.0,29.69,SE,135,20.0,45.0,74,0.00,,,-99.99,Weather View 32 v60,2013-02-18 10:30:00,
2013-02-18 05:35:00,23.0,16.0,29.69,SSE,157,24.0,45.0,74,0.00,,,-99.99,Weather View 32 v60,2013-02-18 10:35:00,
2013-02-18 05:40:00,23.0,16.3,29.67,SE,135,22.0,45.0,75,0.00,,,-99.99,Weather View 32 v60,2013-02-18 10:40:00,
2013-02-18 05:45:00,23.0,16.3,29.67,SE,135,22.0,45.0,75,0.00,,,-99.99,Weather View 32 v60,2013-02-18 10:45:00,
2013-02-18 05:55:00,24.0,16.9,29.67,SE,135,16.0,45.0,74,0.00,,,-99.99,Weather View 32 v60,2013-02-18 10:55:00,
2013-02-18 06:00:00,24.0,16.6,29.67,SE,135,14.0,45.0,73,0.00,,,-99.99,Weather View 32 v60,2013-02-18 11:00:00,
2013-02-18 06:05:00,24.0,16.6,29.67,SE,135,15.0,31.0,73,0.00,,,-99.99,Weather View 32 v60,2013-02-18 11:05:00,
2013-02-18 06:10:00,25.0,16.9,29.67,SE,135,22.0,44.0,71,0.00,,,-99.99,Weather View 32 v60,2013-02-18 11:10:00,
2013-02-18 06:15:00,25.0,16.6,29.67,SE,135,12.0,44.0,70,0.00,,,-99.99,Weather View 32 v60,2013-02-18 11:15:00,
2013-02-18 06:20:00,26.0,17.6,29.65,SE,135,21.0,45.0,70,0.00,,,-99.99,Weather View 32 v60,2013-02-18 11:20:00,
2013-02-18 06:25:00,26.0,17.2,29.65,SE,135,19.0,45.0,69,0.00,,,-99.99,Weather View 32 v60,2013-02-18 11:25:00,
2013-02-18 06:30:00,27.0,17.5,29.64,SE,135,25.0,45.0,67,0.00,,,-99.99,Weather View 32 v60,2013-02-18 11:30:00,
2013-02-18 06:35:00,27.0,17.5,29.64,SE,135,23.0,45.0,67,0.00,,,-99.99,Weather View 32 v60,2013-02-18 11:35:00,
2013-02-18 06:40:00,27.0,17.5,29.64,SSE,157,16.0,45.0,67,0.00,,,-99.99,Weather View 32 v60,2013-02-18 11:40:00,
2013-02-18 06:45:00,27.0,17.8,29.64,SSE,157,17.0,45.0,68,0.00,,,-99.99,Weather View 32 v60,2013-02-18 11:45:00,
2013-02-18 06:50:00,27.0,17.5,29.64,SE,135,17.0,45.0,67,0.00,,,-99.99,Weather View 32 v60,2013-02-18 11:50:00,
2013-02-18 06:55:00,23.0,16.0,29.67,SE,135,19.0,45.0,74,0.00,,,-99.99,Weather View 32 v60,2013-02-18 11:55:00,
2013-02-18 07:00:00,27.0,17.8,29.64,SSE,157,18.0,45.0,68,0.00,,,-99.99,Weather View 32 v60,2013-02-18 12:00:00,
2013-02-18 07:05:00,27.0,17.8,29.64,SE,135,17.0,45.0,68,0.00,,,-99.99,Weather View 32 v60,2013-02-18 12:05:00,
2013-02-18 07:10:00,24.0,16.6,29.67,SE,135,15.0,31.0,73,0.00,,,-99.99,Weather View 32 v60,2013-02-18 12:10:00,
2013-02-18 07:15:00,27.0,17.8,29.64,SE,135,19.0,45.0,68,0.00,,,-99.99,Weather View 32 v60,2013-02-18 12:15:00,
2013-02-18 07:20:00,27.0,17.8,29.63,SSE,157,19.0,37.0,68,0.00,,,-99.99,Weather View 32 v60,2013-02-18 12:20:00,
2013-02-18 07:25:00,27.0,17.8,29.63,SE,135,9.0,37.0,68,0.00,,,-99.99,Weather View 32 v60,2013-02-18 12:25:00,
2013-02-18 07:30:00,27.0,17.5,29.63,SE,135,18.0,37.0,67,0.00,,,-99.99,Weather View 32 v60,2013-02-18 12:30:00,
2013-02-18 07:35:00,28.0,18.5,29.63,ESE,112,12.0,37.0,67,0.00,,,-99.99,Weather View 32 v60,2013-02-18 12:35:00,
2013-02-18 07:40:00,27.0,17.8,29.63,SE,135,15.0,37.0,68,0.00,,,-99.99,Weather View 32 v60,2013-02-18 12:40:00,
2013-02-18 07:45:00,28.0,18.8,29.63,South,180,10.0,33.0,68,0.00,,,-99.99,Weather View 32 v60,2013-02-18 12:45:00,
2013-02-18 07:50:00,28.0,18.8,29.63,SSE,157,11.0,33.0,68,0.00,,,-99.99,Weather View 32 v60,2013-02-18 12:50:00,
2013-02-18 07:55:00,28.0,18.8,29.63,South,180,10.0,33.0,68,0.00,,,-99.99,Weather View 32 v60,2013-02-18 12:55:00,
2013-02-18 08:05:00,28.0,18.8,29.63,SE,135,16.0,30.0,68,0.00,,,-99.99,Weather View 32 v60,2013-02-18 13:05:00,
2013-02-18 08:10:00,28.0,18.8,29.62,SSE,157,19.0,30.0,68,0.00,,,-99.99,Weather View 32 v60,2013-02-18 13:10:00,
2013-02-18 08:15:00,29.0,19.8,29.62,South,180,13.0,30.0,68,0.00,,,-99.99,Weather View 32 v60,2013-02-18 13:15:00,
2013-02-18 08:20:00,29.0,19.4,29.61,SE,135,20.0,30.0,67,0.00,,,-99.99,Weather View 32 v60,2013-02-18 13:20:00,
2013-02-18 08:25:00,29.0,19.4,29.61,SE,135,16.0,30.0,67,0.00,,,-99.99,Weather View 32 v60,2013-02-18 13:25:00,
2013-02-18 08:30:00,30.0,20.4,29.61,SE,135,17.0,30.0,67,0.00,,,-99.99,Weather View 32 v60,2013-02-18 13:30:00,
2013-02-18 08:35:00,30.0,20.4,29.61,SE,135,15.0,28.0,67,0.00,,,-99.99,Weather View 32 v60,2013-02-18 13:35:00,
2013-02-18 08:40:00,30.0,20.4,29.60,SE,135,9.0,30.0,67,0.00,,,-99.99,Weather View 32 v60,2013-02-18 13:40:00,
2013-02-18 08:45:00,31.0,21.3,29.60,SE,135,13.0,30.0,67,0.00,,,-99.99,Weather View 32 v60,2013-02-18 13:45:00,
2013-02-18 08:50:00,31.0,21.3,29.60,SSE,157,14.0,30.0,67,0.00,,,-99.99,Weather View 32 v60,2013-02-18 13:50:00,
2013-02-18 08:55:00,31.0,21.0,29.60,South,180,13.0,30.0,66,0.00,,,-99.99,Weather View 32 v60,2013-02-18 13:55:00,
2013-02-18 09:00:00,32.0,21.6,29.59,SE,135,13.0,30.0,65,0.11,,,-99.99,Weather View 32 v60,2013-02-18 14:00:00,
2013-02-18 09:05:00,32.0,21.9,29.59,SSE,157,12.0,30.0,66,0.57,,,-99.99,Weather View 32 v60,2013-02-18 14:05:00,
2013-02-18 09:10:00,32.0,21.9,29.59,SE,135,10.0,30.0,66,1.04,,,-99.99,Weather View 32 v60,2013-02-18 14:10:00,
2013-02-18 09:15:00,32.0,21.6,29.59,SE,135,10.0,36.0,65,1.49,,,-99.99,Weather View 32 v60,2013-02-18 14:15:00,
2013-02-18 09:20:00,33.0,22.5,29.59,South,180,13.0,36.0,65,1.95,,,-99.99,Weather View 32 v60,2013-02-18 14:20:00,
2013-02-18 09:25:00,33.0,22.9,29.59,South,180,10.0,36.0,66,2.40,,,-99.99,Weather View 32 v60,2013-02-18 14:25:00,
2013-02-18 09:35:00,34.0,23.5,29.58,SE,135,7.0,36.0,65,3.31,,,-99.99,Weather View 32 v60,2013-02-18 14:35:00,
2013-02-18 09:40:00,34.0,23.5,29.59,South,180,6.0,36.0,65,3.77,,,-99.99,Weather View 32 v60,2013-02-18 14:40:00,
2013-02-18 09:45:00,34.0,23.5,29.59,SSE,157,13.0,47.0,65,4.22,,,-99.99,Weather View 32 v60,2013-02-18 14:45:00,
2013-02-18 09:50:00,34.0,23.5,29.57,SE,135,6.0,47.0,65,4.68,,,-99.99,Weather View 32 v60,2013-02-18 14:50:00,
2013-02-18 09:55:00,34.0,23.5,29.57,SE,135,10.0,47.0,65,5.13,,,-99.99,Weather View 32 v60,2013-02-18 14:55:00,
2013-02-18 10:00:00,35.0,24.4,29.57,SE,135,12.0,47.0,65,5.48,,,-99.99,Weather View 32 v60,2013-02-18 15:00:00,
2013-02-18 10:10:00,36.0,25.4,29.56,South,180,10.0,47.0,65,4.99,,,-99.99,Weather View 32 v60,2013-02-18 15:10:00,
2013-02-18 10:15:00,37.0,25.9,29.56,SSE,157,8.0,47.0,64,4.54,,,-99.99,Weather View 32 v60,2013-02-18 15:15:00,
2013-02-18 10:20:00,37.0,25.9,29.55,SSW,202,10.0,47.0,64,4.08,,,-99.99,Weather View 32 v60,2013-02-18 15:20:00,
2013-02-18 10:25:00,38.0,26.5,29.55,SSE,157,10.0,47.0,63,3.63,,,-99.99,Weather View 32 v60,2013-02-18 15:25:00,
2013-02-18 10:35:00,39.0,26.7,29.55,South,180,26.0,47.0,61,2.72,,,-99.99,Weather View 32 v60,2013-02-18 15:35:00,
2013-02-18 10:45:00,40.0,27.6,29.54,SE,135,7.0,29.0,61,1.81,,,-99.99,Weather View 32 v60,2013-02-18 15:45:00,
2013-02-18 10:50:00,40.0,27.6,29.53,SSE,157,13.0,27.0,61,1.35,,,-99.99,Weather View 32 v60,2013-02-18 15:50:00,
2013-02-18 10:55:00,40.0,28.0,29.53,SSE,157,10.0,27.0,62,0.90,,,-99.99,Weather View 32 v60,2013-02-18 15:55:00,
2013-02-18 11:00:00,40.0,28.0,29.53,SSE,157,14.0,27.0,62,0.44,,,-99.99,Weather View 32 v60,2013-02-18 16:00:00,
2013-02-18 11:05:00,40.0,28.0,29.53,SSE,157,20.0,27.0,62,0.00,,,-99.99,Weather View 32 v60,2013-02-18 16:05:00,
2013-02-18 11:10:00,40.0,28.0,29.52,South,180,11.0,26.0,62,0.00,,,-99.99,Weather View 32 v60,2013-02-18 16:10:00,
2013-02-18 11:15:00,41.0,29.0,29.52,SSE,157,15.0,27.0,62,0.00,,,-99.99,Weather View 32 v60,2013-02-18 16:15:00,
2013-02-18 11:20:00,41.0,29.0,29.51,SSE,157,5.0,29.0,62,0.00,,,-99.99,Weather View 32 v60,2013-02-18 16:20:00,
2013-02-18 11:30:00,41.0,29.4,29.51,South,180,10.0,29.0,63,0.00,,,-99.99,Weather View 32 v60,2013-02-18 16:30:00,
2013-02-18 11:35:00,38.0,25.7,29.55,SE,135,15.0,47.0,61,3.17,,,-99.99,Weather View 32 v60,2013-02-18 16:35:00,
2013-02-18 11:45:00,39.0,27.1,29.54,South,180,9.0,47.0,62,2.26,,,-99.99,Weather View 32 v60,2013-02-18 16:45:00,
2013-02-18 12:00:00,43.0,30.9,29.48,SSW,202,10.0,29.0,62,0.00,,,-99.99,Weather View 32 v60,2013-02-18 17:00:00,
2013-02-18 12:10:00,43.0,30.9,29.47,South,180,9.0,29.0,62,0.00,,,-99.99,Weather View 32 v60,2013-02-18 17:10:00,
2013-02-18 12:15:00,40.0,28.0,29.52,South,180,11.0,26.0,62,0.00,,,-99.99,Weather View 32 v60,2013-02-18 17:15:00,
2013-02-18 12:25:00,44.0,31.8,29.45,South,180,8.0,23.0,62,0.00,,,-99.99,Weather View 32 v60,2013-02-18 17:25:00,
2013-02-18 12:30:00,41.0,29.4,29.51,SE,135,11.0,29.0,63,0.00,,,-99.99,Weather View 32 v60,2013-02-18 17:30:00,
2013-02-18 12:35:00,44.0,31.8,29.44,SE,135,15.0,23.0,62,0.00,,,-99.99,Weather View 32 v60,2013-02-18 17:35:00,
2013-02-18 12:40:00,41.0,29.4,29.51,SE,135,7.0,29.0,63,0.00,,,-99.99,Weather View 32 v60,2013-02-18 17:40:00,
2013-02-18 12:45:00,42.0,29.9,29.50,South,180,9.0,29.0,62,0.00,,,-99.99,Weather View 32 v60,2013-02-18 17:45:00,
2013-02-18 12:50:00,42.0,29.9,29.50,SE,135,9.0,29.0,62,0.00,,,-99.99,Weather View 32 v60,2013-02-18 17:50:00,
2013-02-18 13:00:00,42.0,29.5,29.49,SE,135,7.0,29.0,61,0.00,,,-99.99,Weather View 32 v60,2013-02-18 18:00:00,
2013-02-18 13:05:00,44.0,32.2,29.42,South,180,9.0,33.0,63,0.00,,,-99.99,Weather View 32 v60,2013-02-18 18:05:00,
2013-02-18 13:10:00,43.0,30.9,29.48,South,180,7.0,29.0,62,0.00,,,-99.99,Weather View 32 v60,2013-02-18 18:10:00,
2013-02-18 13:20:00,43.0,30.9,29.47,SE,135,13.0,29.0,62,0.00,,,-99.99,Weather View 32 v60,2013-02-18 18:20:00,
2013-02-18 13:25:00,45.0,33.5,29.40,SSE,157,14.0,33.0,64,0.00,,,-99.99,Weather View 32 v60,2013-02-18 18:25:00,
2013-02-18 13:30:00,45.0,33.9,29.39,South,180,13.0,33.0,65,0.00,,,-99.99,Weather View 32 v60,2013-02-18 18:30:00,
2013-02-18 13:35:00,45.0,33.9,29.39,South,180,24.0,33.0,65,0.00,,,-99.99,Weather View 32 v60,2013-02-18 18:35:00,
2013-02-18 13:40:00,46.0,34.5,29.39,South,180,6.0,33.0,64,0.00,,,-99.99,Weather View 32 v60,2013-02-18 18:40:00,
2013-02-18 13:45:00,46.0,34.9,29.39,SSW,202,15.0,33.0,65,0.00,,,-99.99,Weather View 32 v60,2013-02-18 18:45:00,
2013-02-18 13:50:00,44.0,31.8,29.43,SE,135,19.0,26.0,62,0.00,,,-99.99,Weather View 32 v60,2013-02-18 18:50:00,
2013-02-18 13:55:00,44.0,32.2,29.42,SSE,157,16.0,26.0,63,0.00,,,-99.99,Weather View 32 v60,2013-02-18 18:55:00,
2013-02-18 14:00:00,44.0,32.6,29.42,SE,135,15.0,33.0,64,0.00,,,-99.99,Weather View 32 v60,2013-02-18 19:00:00,
2013-02-18 14:05:00,44.0,32.2,29.42,SSW,202,25.0,33.0,63,0.00,,,-99.99,Weather View 32 v60,2013-02-18 19:05:00,
2013-02-18 14:10:00,47.0,35.8,29.39,South,180,13.0,37.0,65,0.00,,,-99.99,Weather View 32 v60,2013-02-18 19:10:00,
2013-02-18 14:15:00,45.0,33.5,29.41,SSE,157,10.0,33.0,64,0.00,,,-99.99,Weather View 32 v60,2013-02-18 19:15:00,
2013-02-18 14:20:00,45.0,33.5,29.41,South,180,13.0,33.0,64,0.00,,,-99.99,Weather View 32 v60,2013-02-18 19:20:00,
2013-02-18 14:30:00,47.0,36.2,29.39,SSW,202,8.0,37.0,66,0.00,,,-99.99,Weather View 32 v60,2013-02-18 19:30:00,
2013-02-18 14:45:00,47.0,36.2,29.39,SW,225,16.0,37.0,66,0.00,,,-99.99,Weather View 32 v60,2013-02-18 19:45:00,
2013-02-18 14:50:00,47.0,36.6,29.38,SW,225,8.0,37.0,67,0.00,,,-99.99,Weather View 32 v60,2013-02-18 19:50:00,
2013-02-18 15:10:00,46.0,34.9,29.39,South,180,11.0,33.0,65,0.00,,,-99.99,Weather View 32 v60,2013-02-18 20:10:00,
2013-02-18 15:20:00,47.0,35.8,29.39,SE,135,6.0,37.0,65,0.00,,,-99.99,Weather View 32 v60,2013-02-18 20:20:00,
2013-02-18 15:25:00,47.0,37.3,29.38,South,180,14.0,37.0,69,0.00,,,-99.99,Weather View 32 v60,2013-02-18 20:25:00,
2013-02-18 15:30:00,47.0,35.8,29.40,South,180,15.0,37.0,65,0.00,,,-99.99,Weather View 32 v60,2013-02-18 20:30:00,
2013-02-18 15:35:00,47.0,37.3,29.37,South,180,12.0,37.0,69,0.00,,,-99.99,Weather View 32 v60,2013-02-18 20:35:00,
2013-02-18 15:40:00,47.0,36.2,29.39,South,180,18.0,37.0,66,0.00,,,-99.99,Weather View 32 v60,2013-02-18 20:40:00,
2013-02-18 15:45:00,47.0,36.2,29.39,SSE,157,22.0,37.0,66,0.00,,,-99.99,Weather View 32 v60,2013-02-18 20:45:00,
2013-02-18 15:55:00,47.0,38.1,29.36,SE,135,17.0,37.0,71,0.00,,,-99.99,Weather View 32 v60,2013-02-18 20:55:00,
2013-02-18 16:00:00,47.0,36.6,29.38,SE,135,10.0,37.0,67,0.00,,,-99.99,Weather View 32 v60,2013-02-18 21:00:00,
2013-02-18 16:10:00,47.0,36.6,29.38,SE,135,13.0,37.0,67,0.00,,,-99.99,Weather View 32 v60,2013-02-18 21:10:00,
2013-02-18 16:15:00,47.0,36.6,29.38,SE,135,5.0,37.0,67,0.00,,,-99.99,Weather View 32 v60,2013-02-18 21:15:00,
2013-02-18 16:20:00,47.0,38.8,29.35,SE,135,11.0,37.0,73,0.00,,,-99.99,Weather View 32 v60,2013-02-18 21:20:00,
2013-02-18 16:25:00,47.0,38.8,29.35,SE,135,11.0,37.0,73,0.00,,,-99.99,Weather View 32 v60,2013-02-18 21:25:00,
2013-02-18 16:30:00,47.0,38.8,29.34,South,180,16.0,37.0,73,0.00,,,-99.99,Weather View 32 v60,2013-02-18 21:30:00,
2013-02-18 16:35:00,47.0,39.5,29.34,SSE,157,12.0,37.0,75,0.00,,,-99.99,Weather View 32 v60,2013-02-18 21:35:00,
2013-02-18 16:55:00,47.0,37.7,29.36,SE,135,11.0,37.0,70,0.00,,,-99.99,Weather View 32 v60,2013-02-18 21:55:00,
2013-02-18 17:00:00,47.0,40.5,29.34,SW,225,11.0,37.0,78,0.00,,,-99.99,Weather View 32 v60,2013-02-18 22:00:00,
2013-02-18 17:05:00,47.0,38.1,29.35,South,180,25.0,37.0,71,0.00,,,-99.99,Weather View 32 v60,2013-02-18 22:05:00,
2013-02-18 17:10:00,47.0,38.1,29.35,SE,135,14.0,37.0,71,0.00,,,-99.99,Weather View 32 v60,2013-02-18 22:10:00,
2013-02-18 17:20:00,47.0,38.4,29.35,SSE,157,19.0,37.0,72,0.00,,,-99.99,Weather View 32 v60,2013-02-18 22:20:00,
2013-02-18 17:35:00,45.0,39.2,29.33,South,180,11.0,28.0,80,0.01,,,-99.99,Weather View 32 v60,2013-02-18 22:35:00,
2013-02-18 17:40:00,44.0,38.2,29.33,SE,135,18.0,28.0,80,0.02,,,-99.99,Weather View 32 v60,2013-02-18 22:40:00,
2013-02-18 17:45:00,47.0,39.8,29.34,SSE,157,11.0,37.0,76,0.00,,,-99.99,Weather View 32 v60,2013-02-18 22:45:00,
2013-02-18 17:50:00,47.0,39.8,29.34,SSW,202,19.0,37.0,76,0.00,,,-99.99,Weather View 32 v60,2013-02-18 22:50:00,
2013-02-18 17:55:00,44.0,38.2,29.32,SE,135,23.0,31.0,80,0.03,,,-99.99,Weather View 32 v60,2013-02-18 22:55:00,
2013-02-18 18:00:00,47.0,40.2,29.34,SE,135,10.0,37.0,77,0.00,,,-99.99,Weather View 32 v60,2013-02-18 23:00:00,
2013-02-18 18:05:00,44.0,38.2,29.32,SE,135,12.0,31.0,80,0.03,,,-99.99,Weather View 32 v60,2013-02-18 23:05:00,
2013-02-18 18:10:00,44.0,38.2,29.32,South,180,11.0,31.0,80,0.03,,,-99.99,Weather View 32 v60,2013-02-18 23:10:00,
2013-02-18 18:15:00,47.0,40.5,29.33,South,180,12.0,37.0,78,0.00,,,-99.99,Weather View 32 v60,2013-02-18 23:15:00,
2013-02-18 18:20:00,46.0,39.8,29.33,SE,135,9.0,37.0,79,0.00,,,-99.99,Weather View 32 v60,2013-02-18 23:20:00,
2013-02-18 18:25:00,46.0,39.8,29.33,SE,135,15.0,37.0,79,0.00,,,-99.99,Weather View 32 v60,2013-02-18 23:25:00,
2013-02-18 18:30:00,45.0,38.9,29.33,SE,135,11.0,30.0,79,0.00,,,-99.99,Weather View 32 v60,2013-02-18 23:30:00,
2013-02-18 18:35:00,45.0,38.9,29.33,SE,135,7.0,30.0,79,0.00,,,-99.99,Weather View 32 v60,2013-02-18 23:35:00,
2013-02-18 18:40:00,44.0,38.5,29.31,SSW,202,19.0,31.0,81,0.03,,,-99.99,Weather View 32 v60,2013-02-18 23:40:00,
2013-02-18 18:45:00,44.0,38.5,29.31,South,180,9.0,31.0,81,0.02,,,-99.99,Weather View 32 v60,2013-02-18 23:45:00,
2013-02-18 18:55:00,45.0,39.2,29.31,South,180,12.0,33.0,80,0.02,,,-99.99,Weather View 32 v60,2013-02-18 23:55:00,
2013-02-18 19:05:00,45.0,38.9,29.29,SSW,202,14.0,33.0,79,0.02,,,-99.99,Weather View 32 v60,2013-02-19 00:05:00,
2013-02-18 19:10:00,45.0,38.9,29.28,South,180,12.0,33.0,79,0.02,,,-99.99,Weather View 32 v60,2013-02-19 00:10:00,
2013-02-18 19:15:00,45.0,38.9,29.28,SE,135,11.0,33.0,79,0.01,,,-99.99,Weather View 32 v60,2013-02-19 00:15:00,
2013-02-18 19:20:00,44.0,38.2,29.32,SE,135,19.0,31.0,80,0.04,,,-99.99,Weather View 32 v60,2013-02-19 00:20:00,
2013-02-18 19:25:00,44.0,38.5,29.28,South,180,9.0,33.0,81,0.01,,,-99.99,Weather View 32 v60,2013-02-19 00:25:00,
2013-02-18 19:35:00,44.0,38.5,29.32,South,180,14.0,31.0,81,0.05,,,-99.99,Weather View 32 v60,2013-02-19 00:35:00,
2013-02-18 19:50:00,44.0,37.9,29.27,SSE,157,15.0,33.0,79,0.01,,,-99.99,Weather View 32 v60,2013-02-19 00:50:00,
2013-02-18 19:55:00,45.0,39.5,29.31,South,180,22.0,31.0,81,0.02,,,-99.99,Weather View 32 v60,2013-02-19 00:55:00,
2013-02-18 20:00:00,44.0,37.9,29.26,SSE,157,18.0,29.0,79,0.01,,,-99.99,Weather View 32 v60,2013-02-19 01:00:00,
2013-02-18 20:05:00,45.0,38.9,29.29,SW,225,12.0,33.0,79,0.02,,,-99.99,Weather View 32 v60,2013-02-19 01:05:00,
2013-02-18 20:10:00,44.0,37.9,29.26,SSE,157,10.0,34.0,79,0.02,,,-99.99,Weather View 32 v60,2013-02-19 01:10:00,
2013-02-18 20:15:00,44.0,37.9,29.26,SW,225,16.0,34.0,79,0.02,,,-99.99,Weather View 32 v60,2013-02-19 01:15:00,
2013-02-18 20:35:00,45.0,39.2,29.27,South,180,12.0,33.0,80,0.01,,,-99.99,Weather View 32 v60,2013-02-19 01:35:00,
2013-02-18 20:45:00,44.0,38.2,29.27,SSE,157,11.0,33.0,80,0.01,,,-99.99,Weather View 32 v60,2013-02-19 01:45:00,
2013-02-18 20:50:00,44.0,38.2,29.27,SW,225,16.0,33.0,80,0.01,,,-99.99,Weather View 32 v60,2013-02-19 01:50:00,
2013-02-18 21:00:00,43.0,37.2,29.23,SSE,157,14.0,52.0,80,0.07,,,-99.99,Weather View 32 v60,2013-02-19 02:00:00,
2013-02-18 21:10:00,43.0,37.2,29.23,SSW,202,15.0,52.0,80,0.07,,,-99.99,Weather View 32 v60,2013-02-19 02:10:00,
2013-02-18 21:15:00,43.0,37.2,29.23,South,180,19.0,52.0,80,0.08,,,-99.99,Weather View 32 v60,2013-02-19 02:15:00,
2013-02-18 21:25:00,44.0,37.9,29.26,South,180,10.0,34.0,79,0.02,,,-99.99,Weather View 32 v60,2013-02-19 02:25:00,
2013-02-18 21:30:00,44.0,37.9,29.26,SE,135,20.0,36.0,79,0.03,,,-99.99,Weather View 32 v60,2013-02-19 02:30:00,
2013-02-18 21:35:00,44.0,37.9,29.25,South,180,10.0,36.0,79,0.04,,,-99.99,Weather View 32 v60,2013-02-19 02:35:00,
2013-02-18 21:40:00,43.0,37.6,29.18,SE,135,17.0,52.0,81,0.10,,,-99.99,Weather View 32 v60,2013-02-19 02:40:00,
2013-02-18 21:45:00,44.0,37.9,29.24,SSE,157,18.0,36.0,79,0.04,,,-99.99,Weather View 32 v60,2013-02-19 02:45:00,
2013-02-18 21:55:00,44.0,38.2,29.24,SW,225,15.0,52.0,80,0.06,,,-99.99,Weather View 32 v60,2013-02-19 02:55:00,
2013-02-18 22:00:00,43.0,37.6,29.18,South,180,18.0,41.0,81,0.09,,,-99.99,Weather View 32 v60,2013-02-19 03:00:00,
2013-02-18 22:05:00,43.0,37.6,29.18,SE,135,10.0,41.0,81,0.08,,,-99.99,Weather View 32 v60,2013-02-19 03:05:00,
2013-02-18 22:10:00,43.0,37.2,29.23,South,180,10.0,52.0,80,0.08,,,-99.99,Weather View 32 v60,2013-02-19 03:10:00,
2013-02-18 22:15:00,43.0,37.6,29.17,SE,135,14.0,34.0,81,0.08,,,-99.99,Weather View 32 v60,2013-02-19 03:15:00,
2013-02-18 22:25:00,43.0,37.2,29.22,SE,135,21.0,52.0,80,0.08,,,-99.99,Weather View 32 v60,2013-02-19 03:25:00,
2013-02-18 22:35:00,43.0,37.6,29.15,South,180,16.0,37.0,81,0.05,,,-99.99,Weather View 32 v60,2013-02-19 03:35:00,
2013-02-18 22:40:00,43.0,37.6,29.14,SSE,157,19.0,37.0,81,0.04,,,-99.99,Weather View 32 v60,2013-02-19 03:40:00,
2013-02-18 22:45:00,43.0,37.6,29.14,SSE,157,12.0,37.0,81,0.04,,,-99.99,Weather View 32 v60,2013-02-19 03:45:00,
2013-02-18 22:50:00,43.0,37.6,29.13,South,180,15.0,37.0,81,0.04,,,-99.99,Weather View 32 v60,2013-02-19 03:50:00,
2013-02-18 22:55:00,43.0,37.6,29.18,South,180,14.0,45.0,81,0.09,,,-99.99,Weather View 32 v60,2013-02-19 03:55:00,
2013-02-18 23:00:00,43.0,37.6,29.18,SSE,157,22.0,42.0,81,0.09,,,-99.99,Weather View 32 v60,2013-02-19 04:00:00,
2013-02-18 23:05:00,43.0,37.9,29.13,SW,225,18.0,39.0,82,0.05,,,-99.99,Weather View 32 v60,2013-02-19 04:05:00,
2013-02-18 23:10:00,43.0,37.9,29.14,WSW,247,10.0,39.0,82,0.04,,,-99.99,Weather View 32 v60,2013-02-19 04:10:00,
2013-02-18 23:15:00,43.0,37.9,29.14,SSW,202,16.0,39.0,82,0.05,,,-99.99,Weather View 32 v60,2013-02-19 04:15:00,
2013-02-18 23:20:00,43.0,37.6,29.17,SE,135,14.0,34.0,81,0.08,,,-99.99,Weather View 32 v60,2013-02-19 04:20:00,
2013-02-18 23:25:00,43.0,37.6,29.16,SW,225,8.0,34.0,81,0.07,,,-99.99,Weather View 32 v60,2013-02-19 04:25:00,
2013-02-18 23:30:00,43.0,38.2,29.13,WSW,247,19.0,39.0,83,0.05,,,-99.99,Weather View 32 v60,2013-02-19 04:30:00,
2013-02-18 23:35:00,43.0,37.6,29.15,South,180,22.0,35.0,81,0.06,,,-99.99,Weather View 32 v60,2013-02-19 04:35:00,
2013-02-18 23:40:00,41.0,36.8,29.12,WSW,247,19.0,39.0,85,0.06,,,-99.99,Weather View 32 v60,2013-02-19 04:40:00,
2013-02-18 23:45:00,40.0,35.9,29.12,SW,225,17.0,42.0,85,0.07,,,-99.99,Weather View 32 v60,2013-02-19 04:45:00,
2013-02-18 23:50:00,39.0,34.3,29.13,WSW,247,34.0,51.0,83,0.06,,,-99.99,Weather View 32 v60,2013-02-19 04:50:00,
2013-02-18 23:55:00,38.0,33.9,29.13,West,270,56.0,76.0,85,0.06,,,-99.99,Weather View 32 v60,2013-02-19 04:55:00,